Regional Weather Roundup
Issued by NWS Jackson, KY

Home | Current Version | Previous Version | Graphics & Text | Print | Product List | Glossary On
Versions: 1 2 3 4 5 6 7 8 9 10 11 12 13 14 15 16 17 18 19 20 21 22 23 24 25 26 27 28 29 30 31 32 33 34 35 36 37 38 39 40 41 42 43 44 45 46 47 48 49 50
000
ASUS43 KJKL 290705
RWRJKL

EAST KENTUCKY HOURLY WEATHER ROUNDUP
NATIONAL WEATHER SERVICE JACKSON KY
200 AM EST MON DEC 29 2014

NOTE: "FAIR" INDICATES FEW OR NO CLOUDS BELOW 12,000 FEET WITH
NO SIGNIFICANT WEATHER AND/OR OBSTRUCTIONS TO VISIBILITY.

* THESE REPORTS ARE NOT UNDER NWS QUALITY CONTROL AND MAY NOT
  REPORT WEATHER SUCH AS PRECIPITATION AND FOG.

KYZ079-080-083-085-087-088-110-112-115-119-120-290800
...EASTERN KENTUCKY...

CITY           SKY/WX    TMP DP  RH WIND       PRES   REMARKS
JACKSON        FOG       36  35  96 N3        30.14R VSB 1/2
LONDON         LGT RAIN  38  35  89 N7        30.15R WCI  33
SOMERSET*      RAIN      36  36 100 NE5       30.15F WCI  32
MONTICELLO*    LGT SNOW  38  38 100 NE6       30.17F FOG     WCI  33
MIDDLESBORO*   CLOUDY    43  43 100 CALM      30.11R
HARLAN APT*    CLOUDY    43  41  93 N5        30.10R
BLACK MTN*       N/A     39  39 100 SW2         N/A
PIKEVILLE APT* FOG       36  36 100 N7        30.12S VSB 1/4 WCI  30
BIG SANDY*     CLOUDY    35  35 100 N8        30.15S FOG     WCI  29
MOREHEAD APT*  CLOUDY    34  32  93 CALM      30.20R FOG
$$

KYZ035-036-041-042-044-050-067-078-099-290800
...CENTRAL KENTUCKY...

CITY           SKY/WX    TMP DP  RH WIND       PRES   REMARKS
MT STERLING*   CLOUDY    32  32 100 E3        30.18S
FLEMING/MASON* CLOUDY    32  31  98 N5        30.20R FOG     WCI  27
DANVILLE*      CLOUDY    32  32 100 NE5       30.17F WCI  27
RICHMOND*      CLOUDY    34  32  93 CALM      30.16S
LEXINGTON      CLOUDY    32  30  92 N5        30.17F WCI  27
FRANKFORT      CLOUDY    32  29  88 NE3       30.17F
$$

KYZ091>093-OHZ055-061-077-WVZ005-015-034-035-042-290800
...SOUTHERN OHIO/WEST VIRGINIA...

CITY           SKY/WX    TMP DP  RH WIND       PRES   REMARKS
COVINGTON      MOCLDY    30  24  78 N7        30.20R WCI  23
COLUMBUS       MOCLDY    29  25  85 N5        30.20S WCI  24
DAYTON         PTCLDY    27  24  89 N6        30.22R WCI  20
WILMINGTON     MOCLDY    28  25  88 N5        30.20R FOG     WCI  23
HUNTINGTON     CLOUDY    35  33  92 N5        30.17R WCI  31
CHARLESTON     CLOUDY    37  34  89 CALM      30.16R
PINEVILLE*     CLOUDY    43  43 100 MISG      30.14S
BECKLEY        FOG       37  36  96 N5        30.08R VSB 1   WCI  33
BLUEFIELD      LGT RAIN  42  39  89 CALM      30.06F VSB 1
$$

VAZ002-007-008-TNZ017-027-036-066-071-290800
...SOUTHWEST VIRGINIA/EAST TENNESSEE...

CITY           SKY/WX    TMP DP  RH WIND       PRES   REMARKS
WISE*          FOG       41  41 100 N3        30.08S VSB 1/4
JONESVILLE*    LGT RAIN  45  45 100 CALM      30.11R
ABINGDON*      LGT RAIN  48  48 100 CALM      30.08R
BRISTOL        RAIN      48  47  96 CALM      30.09R FOG
KNOXVILLE      LGT RAIN  47  46  97 CALM      30.09S
OAK RIDGE      CLOUDY    46  45  96 CALM      30.11R
CROSSVILLE     CLOUDY    43  40  89 N3        30.10R
NASHVILLE      LGT RAIN  37  35  92 N3        30.17S FOG
$$

...KEY TO REMARKS...
VSB - VISIBILITY IN MILES
WCI - WIND CHILL INDEX
HX  - HEAT INDEX

$$



USA.gov is the U.S. government's official web portal to all federal, state and local government web resources and services.